| time (UTC) | temp F | wind direction | speed knots | gust knots | rain 1hr in | rain 24hr in | rain mn in | humidity % | barometer mb |
| 20260504204526 | 72 | 90 | 5.2 | 11.3 | 0.00 | 0.00 | 0.00 | 31 | 1012.4 |
| 20260504203028 | 71 | 343 | 4.3 | 10.4 | 0.00 | 0.00 | 0.00 | 31 | 1012.4 |
| 20260504201522 | 71 | 73 | 6.1 | 11.3 | 0.00 | 0.00 | 0.00 | 31 | 1012.5 |
| 20260504200020 | 71 | 319 | 5.2 | 11.3 | 0.00 | 0.00 | 0.00 | 31 | 1012.5 |
| 20260504194519 | 71 | 36 | 4.3 | 12.2 | 0.00 | 0.00 | 0.00 | 33 | 1012.7 |
| 20260504193023 | 71 | 33 | 3.5 | 9.6 | 0.00 | 0.00 | 0.00 | 33 | 1012.7 |
| 20260504191520 | 69 | 24 | 5.2 | 13.9 | 0.00 | 0.00 | 0.00 | 34 | 1013.0 |
| 20260504190014 | 69 | 75 | 7.8 | 12.2 | 0.00 | 0.00 | 0.00 | 34 | 1013.0 |
| 20260504184513 | 68 | 310 | 3.5 | 12.2 | 0.00 | 0.00 | 0.00 | 35 | 1013.2 |
| 20260504183011 | 68 | 112 | 7.8 | 15.6 | 0.00 | 0.00 | 0.00 | 35 | 1013.2 |
| 20260504181515 | 68 | 339 | 5.2 | 12.2 | 0.00 | 0.00 | 0.00 | 34 | 1013.3 |
| 20260504180006 | 67 | 25 | 2.6 | 15.6 | 0.00 | 0.00 | 0.00 | 36 | 1013.4 |
| 20260504174505 | 67 | 39 | 7.0 | 12.2 | 0.00 | 0.00 | 0.00 | 35 | 1013.3 |
| 20260504173003 | 66 | 105 | 4.3 | 14.8 | 0.00 | 0.00 | 0.00 | 36 | 1013.3 |
| 20260504171505 | 66 | 346 | 7.0 | 13.0 | 0.00 | 0.00 | 0.00 | 36 | 1013.4 |
| 20260504100108 | 46 | 260 | 0.0 | 0.9 | 0.00 | 0.01 | 0.00 | 83 | 1012.2 |
| 20260504081540 | 49 | 289 | 0.0 | 0.0 | 0.00 | 0.02 | 0.00 | 78 | 1011.6 |
| 20260504050022 | 61 | 75 | 0.0 | 0.9 | 0.00 | 0.02 | 0.02 | 54 | 1011.2 |
| 20260504044525 | 62 | 75 | 0.0 | 1.7 | 0.00 | 0.02 | 0.02 | 54 | 1011.2 |
| 20260504043024 | 62 | 78 | 0.0 | 2.6 | 0.00 | 0.02 | 0.02 | 49 | 1011.2 |
| 20260504041524 | 61 | 7 | 0.0 | 0.9 | 0.00 | 0.02 | 0.02 | 50 | 1011.1 |
| 20260504040023 | 62 | 9 | 0.0 | 0.9 | 0.00 | 0.02 | 0.02 | 53 | 1010.9 |
| 20260504034530 | 63 | 51 | 0.0 | 0.9 | 0.00 | 0.02 | 0.02 | 57 | 1010.7 |
| 20260504033034 | 64 | 294 | 0.0 | 0.0 | 0.00 | 0.02 | 0.02 | 52 | 1010.6 |
| 20260504031518 | 66 | 294 | 0.0 | 0.0 | 0.00 | 0.02 | 0.02 | 47 | 1010.5 |
| 20260504030017 | 68 | 16 | 0.0 | 1.7 | 0.00 | 0.02 | 0.02 | 44 | 1010.5 |
| 20260504024538 | 70 | 40 | 0.0 | 0.0 | 0.00 | 0.02 | 0.02 | 40 | 1010.4 |
| 20260504023017 | 72 | 6 | 0.0 | 2.6 | 0.00 | 0.02 | 0.02 | 36 | 1010.5 |
| 20260504021517 | 74 | 11 | 0.0 | 2.6 | 0.00 | 0.02 | 0.02 | 34 | 1010.4 |
| 20260504020016 | 75 | 74 | 0.0 | 0.9 | 0.00 | 0.02 | 0.02 | 34 | 1010.4 |
| 20260504014512 | 76 | 49 | 0.0 | 3.5 | 0.00 | 0.02 | 0.02 | 32 | 1010.5 |
| 20260504013015 | 76 | 290 | 0.0 | 1.7 | 0.00 | 0.02 | 0.02 | 32 | 1010.7 |
| 20260504011508 | 75 | 308 | 0.0 | 2.6 | 0.00 | 0.02 | 0.02 | 32 | 1010.8 |
| 20260504010007 | 75 | 65 | 0.0 | 2.6 | 0.00 | 0.02 | 0.02 | 32 | 1011.0 |
| 20260504004508 | 75 | 18 | 0.0 | 5.2 | 0.00 | 0.02 | 0.02 | 30 | 1011.2 |
| 20260504003002 | 74 | 80 | 1.7 | 5.2 | 0.00 | 0.02 | 0.02 | 30 | 1011.3 |
| 20260504001607 | 74 | 73 | 2.6 | 5.2 | 0.00 | 0.02 | 0.02 | 31 | 1011.5 |
| 20260503234557 | 76 | 108 | 4.3 | 7.0 | 0.00 | 0.02 | 0.02 | 28 | 1011.7 |
| 20260503233054 | 74 | 104 | 3.5 | 7.8 | 0.00 | 0.02 | 0.02 | 30 | 1011.9 |
| 20260503231555 | 73 | 79 | 6.1 | 8.7 | 0.00 | 0.02 | 0.02 | 30 | 1012.2 |
| 20260503230051 | 74 | 110 | 4.3 | 7.8 | 0.00 | 0.02 | 0.02 | 29 | 1012.4 |
| 20260503224544 | 73 | 89 | 5.2 | 7.8 | 0.00 | 0.02 | 0.02 | 30 | 1012.6 |
| 20260503223042 | 73 | 111 | 6.1 | 10.4 | 0.00 | 0.02 | 0.02 | 32 | 1013.0 |
| 20260503221541 | 73 | 79 | 4.3 | 8.7 | 0.00 | 0.02 | 0.02 | 32 | 1013.2 |
| 20260503220039 | 72 | 71 | 6.1 | 8.7 | 0.00 | 0.02 | 0.02 | 32 | 1013.4 |
| 20260503214533 | 72 | 66 | 5.2 | 8.7 | 0.00 | 0.02 | 0.02 | 33 | 1013.7 |
| 20260503213032 | 71 | 105 | 4.3 | 7.8 | 0.00 | 0.02 | 0.02 | 33 | 1014.0 |
| 20260503211537 | 71 | 84 | 3.5 | 7.0 | 0.00 | 0.02 | 0.02 | 33 | 1014.2 |
| 20260503210026 | 70 | 78 | 4.3 | 8.7 | 0.00 | 0.02 | 0.02 | 38 | 1014.5 |